Probability
0 0 0 0 0 0 0 0 0 0 0 0 0 0 0 0 0 0 0 0 0 0 0 0 0 0 0 0 0 0 0 0 0 0 0 0 0 0 0 0 0 0 0 0
0 0 0 0 0 0 0 0 0 0 0 0 0 0 0 0 0 0 0 0 0 0 0 0 0 0 0 0 0 0 0 0 0 0 0 0 0 0 0 0 0 0 0 0
0 0 0 0 0 0 0 0 0 0 0 0 0 0 0 0 0 0 0 0 0 0 0 0 0 0 0 0 0 0 0 0 0 0 0 0 0 0 0 0 0 0 0 0
0 0 0 0 0 0 0 0 0 0 0 0 0 0 0 0 0 0 0 0 0 0 0 0 0 0 0 0 0 0 0 0 0 0 0 0 0 0 0 0 0 0 0 0
0 0 0 0 0 0 0 0 0 0 0 0 0 0 0 0 0 0 0 0 0 0 0 0 0 0 0 0 0 0 0 0 0 0 0 0 0 0 0 0 0 0 0 0
0 0 0 0 0 0 0 0 0 0 0 0 0 0 0 0 0 0 0 0 0 0 0 0 0 0 0 0 0 0 0 0 0 0 0 0 0 0 0 0 0 0 0 0
0 0 0 0 0 0 0 0 0 0 0 0 0 0 0 0 0 0 0 0 0 0 0 0 0 0 0 0 0 0 0 0 0 0 0 0 0 0 0 0 0 0 0 0
0 0 0 0 0 0 0 0 0 0 0 0 0 0 0 0 0 0 0 0 0 0 0 0 0 0 0 0 0 0 0 0 0 0 0 0 0 0 0 0 0 0 0 0
0 0 0 0 0 0 0 0 0 0 0 0 0 0 0 0 0 0 0 0 0 0 0 0 0 0 0 0 0 0 0 0 0 0 0 0 0 0 0 0 0 0 0 0
0 0 0 0 0 0 0 0 0 0 0 0 0 0 0 0 0 0 0 0 0 0 0 0 0 0 0 0 0 0 0 0 0 0 0 0 0 0 0 0 0 0 0 0
0 0 0 0 0 0 0 0 0 0 0 0 0 0 0 0 0 0 0 0 0 0 0 0 0 0 0 0 0 0 0 0 0 0 0 0 0 0 0 0 0 0 0 0
0 0 0 0 0 0 0 0 0 0 0 0 0 0 0 0 0 0 0 0 0 0 0 0 0 0 0 0 0 0 0 0 0 0 0 0 0 0 0 0 0 0 0 0
0 0 0 0 0 0 0 0 0 0 0 0 0 0 0 0 0 0 0 0 0 0 0 0 0 0 0 0 0 0 0 0 0 0 0 0 0 0 0 0 0 0 0 0
0 0 0 0 0 0 0 0 0 0 0 0 0 0 0 0 0 0 0 0 0 0 0 0 0 0 0 0 0 0 0 0 0 0 0 0 0 0 0 0 0 0 0 0
0 0 0 0 0 0 0 0 0 0 0 0 0 0 0 0 0 0 0 0 0 0 0 0 0 0 0 0 0 0 0 0 0 0 0 0 0 0 0 0 0 0 0 0
0 0 0 0 0 0 0 0 0 0 0 0 0 0 0 0 0 0 0 0 0 0 0 0 0 0 0 0 0 0 0 0 0 0 0 0 0 0 0 0 0 0 0 0
0 0 0 0 0 0 0 0 0 0 0 0 0 0 0 0 0 0 0 0 0 0 0 0 0 0 0 0 0 0 0 0 0 0 0 0 0 0 0 0 0 0 0 0
0 0 0 0 0 0 0 0 0 0 0 0 0 0 0 0 0 0 0 0 0 0 0 0 0 0 0 0 0 0 0 0 0 0 0 0 0 0 0 0 0 0 0 0
0 0 0 0 0 0 0 0 0 0 0 0 0 0 0 0 0 0 0 0 0 0 0 0 0 0 0 0 0 0 0 0 0 0 0 0 0 0 0 0 0 0 0 0
0 0 0 0 0 0 0 0 0 0 0 0 0 0 0 0 0 0 0 0 0 0 0 0 0 0 0 0 0 0 0 0 0 0 0 0 0 0 0 0 0 0 0 0
0 0 0 0 0 0 0 0 0 0 0 0 0 0 0 0 0 0 0 0 0 0 0 0 0 0 0 0 0 0 0 0 0 0 0 0 0 0 0 0 0 0 0 0
0 0 0 0 0 0 0 0 0 0 0 0 0 0 0 0 0 0 0 0 0 0 0 0 0 0 0 0 0 0 0 0 0 0 0 0 0 0 0 0 0 0 0 0
0 0 0 0 0 0 0 0 0 0 0 0 0 0 0 0 0 0 0 0 0 0 0 0 0 0 0 0 0 0 0 0 0 0 0 0 0 0 0 0 0 0 0 0
0 0 0 0 0 0 0 0 0 0 0 0 0 0 0 0 0 0 0 0 0 0 0 0 0 0 0 0 0 0 0 0 0 0 0 0 0 0 0 0 0 0 0 0
0 0 0 0 0 0 0 0 0 0 0 0 0 0 0 0 0 0 0 0 0 0 0 0 0 0 0 0 0 0 0 0 0 0 0 0 0 0 0 0 0 0 0 0
0 0 0 0 0 0 0 0 0 0 0 0 0 0 0 0 0 0 0 0 0 0 0 0 0 0 0 0 0 0 0 0 0 0 0 0 0 0 0 0 0 0 0 0
0 0 0 0 0 0 0 0 0 0 0 0 0 0 0 0 0 0 0 0 0 0 0 0 0 0 0 0 0 0 0 0 0 0 0 0 0 0 0 0 0 0 0 0
Height
5551 5559 5567 5574 5582 5588 5594 5603 5610 5619 5626 5633 5638 5642 5646 5650 5653 5657 5660 5663 5665 5667 5668 5669 5670 5671 5672 5673 5673 5674 5674 5675 5675 5675 5675 5674 5674 5673 5672 5671 5670 5668 5667 5665
5541 5549 5556 5563 5571 5578 5586 5595 5602 5609 5616 5625 5629 5632 5636 5640 5645 5649 5652 5655 5657 5659 5660 5662 5663 5664 5664 5665 5666 5666 5667 5667 5667 5667 5667 5666 5665 5665 5664 5662 5661 5660 5658 5656
5532 5539 5544 5551 5563 5571 5579 5586 5594 5600 5611 5616 5619 5623 5628 5632 5636 5640 5644 5647 5649 5651 5653 5654 5655 5656 5657 5658 5658 5659 5659 5659 5659 5659 5658 5658 5657 5656 5655 5654 5652 5650 5648 5646
5523 5530 5535 5550 5560 5565 5573 5580 5587 5594 5601 5606 5611 5615 5619 5623 5627 5632 5635 5638 5641 5643 5645 5646 5647 5648 5649 5650 5651 5651 5651 5651 5651 5651 5650 5649 5648 5647 5646 5645 5643 5641 5639 5636
5514 5520 5529 5541 5551 5558 5565 5572 5580 5585 5591 5597 5601 5604 5609 5615 5619 5623 5627 5630 5632 5635 5636 5638 5639 5640 5641 5642 5643 5643 5643 5643 5643 5642 5642 5641 5640 5639 5637 5635 5633 5631 5629 5626
5506 5513 5523 5537 5545 5551 5557 5562 5572 5576 5582 5587 5590 5595 5603 5608 5611 5614 5618 5621 5624 5626 5628 5630 5631 5632 5633 5634 5635 5635 5635 5635 5635 5634 5633 5632 5631 5629 5628 5626 5624 5621 5619 5616
5498 5505 5517 5529 5535 5541 5549 5559 5565 5568 5573 5578 5582 5590 5596 5598 5601 5605 5609 5613 5615 5618 5620 5622 5623 5625 5626 5626 5627 5627 5627 5627 5627 5626 5625 5624 5622 5620 5619 5616 5614 5611 5609 5605
5491 5500 5514 5522 5527 5535 5543 5551 5554 5559 5564 5569 5575 5580 5584 5588 5593 5597 5601 5604 5607 5610 5612 5614 5615 5617 5618 5619 5619 5619 5619 5619 5618 5617 5616 5614 5613 5611 5609 5606 5604 5601 5598 5595
5485 5497 5507 5512 5520 5528 5534 5540 5545 5550 5556 5560 5566 5571 5576 5580 5585 5589 5593 5596 5599 5602 5604 5606 5608 5609 5610 5611 5611 5611 5611 5610 5609 5608 5607 5605 5603 5601 5599 5596 5594 5591 5587 5584
5477 5488 5497 5504 5512 5519 5526 5532 5537 5543 5548 5553 5558 5563 5568 5573 5577 5581 5585 5588 5591 5594 5596 5598 5600 5601 5602 5602 5603 5602 5602 5601 5600 5599 5597 5596 5594 5591 5589 5586 5583 5580 5577 5573
5469 5481 5489 5497 5505 5513 5519 5525 5530 5536 5541 5546 5550 5555 5560 5565 5569 5573 5577 5581 5584 5586 5588 5590 5592 5593 5594 5594 5594 5594 5593 5592 5591 5590 5588 5586 5584 5582 5579 5576 5573 5569 5566 5562
5465 5474 5482 5491 5498 5506 5512 5518 5523 5529 5534 5539 5543 5548 5553 5557 5562 5566 5570 5573 5576 5578 5580 5582 5583 5584 5585 5585 5585 5585 5584 5583 5582 5580 5579 5576 5574 5571 5568 5565 5562 5558 5554 5550
5457 5465 5474 5483 5490 5498 5505 5511 5517 5522 5527 5532 5537 5541 5546 5550 5554 5558 5562 5565 5568 5570 5572 5574 5575 5576 5576 5576 5576 5576 5575 5574 5572 5571 5569 5566 5564 5561 5558 5555 5551 5547 5542 5537
5449 5458 5467 5475 5484 5491 5498 5504 5510 5516 5521 5526 5530 5535 5539 5543 5547 5551 5554 5557 5560 5562 5564 5565 5566 5567 5567 5567 5567 5567 5566 5565 5563 5561 5559 5556 5554 5551 5547 5544 5540 5535 5530 5524
5443 5451 5460 5468 5476 5483 5491 5497 5504 5509 5515 5519 5524 5528 5533 5537 5540 5543 5546 5549 5552 5554 5555 5557 5558 5558 5559 5558 5558 5557 5556 5555 5553 5551 5549 5546 5543 5540 5536 5532 5528 5523 5517 5511
5435 5443 5452 5461 5469 5477 5484 5491 5497 5503 5508 5513 5517 5522 5526 5529 5533 5536 5539 5541 5544 5545 5547 5548 5549 5550 5550 5549 5549 5548 5547 5545 5543 5541 5539 5536 5533 5529 5525 5521 5516 5511 5505 5498
5428 5437 5446 5455 5463 5470 5478 5485 5491 5496 5501 5506 5511 5515 5519 5522 5526 5529 5531 5533 5535 5537 5538 5540 5540 5541 5541 5540 5539 5538 5537 5535 5533 5531 5529 5525 5522 5518 5514 5509 5503 5498 5491 5484
5422 5430 5439 5448 5456 5464 5471 5478 5484 5489 5495 5500 5504 5508 5512 5515 5518 5521 5523 5525 5527 5529 5530 5531 5532 5532 5532 5531 5530 5529 5527 5526 5523 5521 5518 5515 5511 5506 5502 5496 5491 5484 5477 5470
5416 5425 5433 5441 5450 5458 5465 5471 5477 5483 5488 5493 5497 5501 5505 5508 5511 5513 5516 5518 5519 5521 5522 5522 5523 5523 5522 5522 5521 5519 5518 5516 5513 5510 5507 5503 5499 5494 5489 5484 5477 5471 5463 5456
5411 5419 5428 5436 5444 5452 5459 5465 5471 5476 5482 5486 5490 5494 5498 5501 5503 5506 5508 5510 5511 5512 5513 5514 5514 5514 5513 5512 5511 5510 5508 5505 5502 5499 5496 5492 5487 5482 5477 5471 5464 5457 5449 5441
5407 5415 5423 5431 5439 5446 5453 5459 5465 5470 5475 5480 5484 5487 5490 5493 5496 5498 5500 5502 5503 5504 5505 5505 5505 5505 5504 5503 5502 5500 5497 5495 5491 5488 5484 5480 5475 5470 5464 5458 5451 5443 5435 5427
5402 5410 5418 5426 5433 5441 5447 5453 5459 5464 5468 5473 5477 5480 5483 5486 5488 5491 5492 5494 5495 5496 5496 5497 5496 5496 5495 5493 5492 5489 5487 5484 5480 5476 5472 5467 5462 5457 5451 5444 5437 5429 5421 5412
5398 5405 5413 5421 5428 5435 5441 5447 5452 5457 5462 5466 5469 5473 5476 5479 5481 5483 5485 5486 5487 5487 5488 5488 5487 5486 5485 5483 5481 5478 5476 5472 5468 5464 5460 5455 5450 5444 5437 5430 5422 5414 5406 5398
5394 5401 5409 5416 5423 5429 5435 5441 5446 5451 5455 5459 5462 5465 5468 5471 5473 5475 5476 5477 5478 5479 5479 5478 5478 5476 5475 5473 5470 5467 5464 5461 5457 5452 5447 5442 5436 5430 5423 5416 5408 5400 5392 5385
5390 5397 5404 5411 5417 5424 5430 5435 5440 5444 5448 5452 5455 5458 5461 5463 5465 5466 5468 5469 5470 5470 5470 5469 5468 5466 5464 5462 5459 5456 5453 5449 5445 5440 5435 5429 5423 5416 5408 5401 5393 5386 5379 5372
5387 5394 5400 5406 5413 5418 5424 5429 5434 5438 5442 5445 5448 5451 5453 5455 5457 5458 5460 5460 5461 5461 5460 5459 5458 5456 5453 5451 5448 5445 5441 5437 5432 5427 5421 5415 5408 5401 5394 5386 5379 5373 5366 5359
5384 5390 5396 5401 5407 5413 5418 5423 5427 5431 5435 5438 5441 5443 5446 5447 5449 5450 5451 5452 5451 5451 5450 5449 5447 5445 5442 5440 5436 5433 5429 5424 5419 5414 5407 5401 5394 5387 5380 5373 5366 5360 5353 5347
Wind_Speed
50 49 47 47 46 47 48 46 44 38 36 32 31 31 30 30 29 27 25 24 24 24 25 25 25 26 26 26 26 26 27 27 28 28 29 30 31 31 32 32 33 34 35 36
51 50 49 48 46 45 44 44 43 41 38 32 32 33 33 32 29 28 26 25 24 25 25 25 25 25 25 25 26 25 26 26 27 28 28 29 30 31 32 32 33 34 35 36
50 50 50 52 47 46 44 42 42 41 34 32 34 34 33 31 30 28 26 25 25 25 25 25 25 25 25 26 26 26 26 26 27 27 28 29 30 31 32 32 33 34 36 37
49 51 52 48 45 44 43 41 40 38 35 35 33 33 34 33 31 29 26 25 25 25 25 25 25 26 26 26 26 26 26 26 27 27 28 29 30 31 32 33 34 35 36 38
46 50 50 47 45 43 42 40 39 38 36 35 34 36 36 33 31 29 27 27 26 26 26 26 26 26 26 26 26 26 26 26 27 28 28 29 30 31 33 34 35 36 37 38
44 46 48 42 41 40 40 40 37 37 36 35 36 37 32 30 31 30 29 28 27 26 26 25 25 26 26 25 26 26 26 27 27 28 29 30 31 32 33 34 35 36 38 39
42 43 44 40 40 40 39 33 32 35 35 35 35 31 28 31 31 30 29 28 27 26 25 25 25 25 26 26 26 26 26 27 28 29 30 31 32 33 34 35 36 37 38 39
43 44 41 37 38 36 33 32 32 32 33 34 33 31 31 31 30 30 29 28 27 26 25 25 25 25 26 26 26 26 27 28 29 30 31 31 33 34 35 36 37 38 39 40
43 42 38 37 34 32 33 32 31 32 32 32 33 32 32 31 30 29 29 28 27 26 25 26 26 26 26 26 27 27 28 29 30 30 31 32 33 34 35 36 37 38 39 40
45 44 40 35 34 32 32 31 30 30 30 31 30 31 31 31 30 29 28 27 27 26 26 26 26 26 27 27 28 29 29 30 31 31 32 33 34 35 36 37 38 38 39 41
43 44 41 38 34 32 31 29 29 29 29 29 29 29 29 30 30 29 29 28 27 27 27 27 27 27 28 28 29 30 30 31 31 32 32 33 34 35 36 37 38 39 40 42
41 40 39 39 37 34 31 29 29 29 29 28 28 28 28 28 29 29 28 27 27 27 27 27 28 28 28 29 29 30 30 30 31 32 33 34 35 35 36 37 38 40 42 44
40 41 42 41 39 36 33 31 29 29 29 28 29 29 28 28 28 28 28 27 27 27 27 27 27 28 28 28 29 29 29 30 31 32 33 34 35 35 36 38 40 42 44 46
41 43 44 42 40 38 37 34 31 30 29 28 28 28 28 28 28 27 27 27 27 27 27 27 28 28 28 28 29 29 30 31 32 32 33 34 35 36 38 39 41 43 46 48
43 44 45 43 40 39 38 35 32 30 29 29 28 28 28 27 27 27 27 27 27 27 27 27 28 28 28 28 29 29 30 31 32 33 34 35 36 37 39 41 43 45 47 50
43 45 45 44 41 39 37 34 32 30 30 29 28 28 27 27 27 27 27 27 27 27 28 27 28 28 28 29 29 30 31 31 32 33 34 35 37 38 40 43 45 47 49 52
43 44 44 42 39 37 35 33 31 30 30 29 28 28 27 28 28 27 27 27 27 27 27 27 28 28 28 29 29 30 31 32 33 34 35 37 38 40 42 45 47 49 51 54
42 42 43 42 39 37 35 33 32 30 29 29 28 28 27 28 28 27 27 26 26 26 27 27 27 28 28 29 29 30 31 32 33 35 36 38 40 42 45 46 48 51 53 55
40 40 41 41 39 37 35 33 32 31 29 29 28 27 28 27 27 27 26 26 26 26 27 27 27 28 28 29 30 31 32 33 35 36 38 40 42 44 46 48 50 52 55 56
41 41 40 39 39 36 34 33 32 31 30 29 28 27 27 26 26 25 25 25 26 26 27 27 27 28 29 30 31 32 33 35 36 38 40 42 43 45 47 49 52 54 56 58
39 39 39 38 37 36 34 32 31 30 29 28 28 27 26 25 25 24 25 25 26 27 27 27 28 29 30 31 32 33 35 36 38 40 41 43 44 46 48 51 54 56 57 58
36 37 38 37 36 34 33 32 31 30 29 28 27 27 26 25 24 25 25 26 27 27 27 28 29 30 31 32 34 35 36 38 39 40 42 44 46 48 51 54 56 57 58 58
34 35 36 36 35 33 33 32 31 30 29 28 27 26 25 25 25 26 26 26 27 27 28 29 30 31 33 34 35 36 37 39 40 42 44 45 48 51 53 56 58 58 57 56
32 33 34 35 35 34 33 32 30 29 28 27 26 26 26 26 26 26 26 26 27 28 29 31 32 33 34 35 36 37 38 40 42 43 45 47 50 53 56 57 57 56 55 53
32 32 33 33 33 33 32 30 29 28 27 26 26 26 26 26 26 26 26 26 28 29 30 31 32 34 35 36 37 38 40 42 43 45 47 50 53 55 57 57 56 53 52 51
30 31 31 30 30 30 30 29 28 27 27 26 26 26 25 25 25 26 27 28 29 30 31 32 33 34 36 37 38 40 41 43 45 47 50 53 55 56 56 55 53 51 50 49
28 29 29 29 29 28 28 28 27 27 26 26 25 25 25 26 26 27 28 29 29 30 31 32 34 35 37 38 39 41 43 45 47 50 52 54 55 55 54 53 51 49 48 46
Wind_Direction
221 221 222 224 225 226 227 230 233 233 233 232 235 237 238 239 240 241 243 244 246 248 251 254 256 258 260 262 264 265 265 266 267 267 269 270 271 272 273 274 276 277 279 280
219 220 222 223 221 223 226 228 230 230 229 228 230 231 234 237 240 240 241 243 244 247 250 254 256 258 260 262 264 265 266 267 268 269 269 271 272 273 274 276 277 279 281 282
218 220 223 223 220 222 223 226 228 229 226 226 229 230 233 237 239 240 240 241 243 246 250 253 256 258 260 262 264 265 266 267 268 269 270 271 273 275 276 278 280 281 282 283
218 220 223 223 222 224 226 227 228 228 224 226 229 230 232 235 237 239 239 241 243 246 250 252 255 257 259 262 263 264 266 267 268 270 272 274 275 277 278 280 281 282 283 284
217 220 221 222 221 223 225 225 226 227 226 226 229 231 232 234 236 237 237 239 243 246 250 251 254 257 259 261 263 264 265 267 269 272 274 276 278 279 280 281 282 283 284 286
214 218 219 219 220 221 225 227 223 227 227 226 229 232 232 234 235 236 238 240 243 246 249 251 253 256 258 260 263 264 266 268 271 274 276 278 279 280 281 282 283 284 286 287
213 214 215 215 218 221 225 222 221 225 226 228 230 231 229 231 233 235 238 241 244 246 248 250 252 254 256 259 262 265 267 270 273 275 278 279 280 281 282 284 285 286 287 289
214 211 209 211 217 221 223 222 222 223 226 228 229 229 228 229 232 234 237 240 242 244 246 248 251 254 256 259 263 266 269 272 275 277 279 280 282 283 284 286 287 288 289 290
213 210 210 212 216 218 219 220 222 224 224 225 228 229 228 229 231 232 234 236 239 241 244 248 251 254 258 261 264 268 271 274 276 278 280 282 283 285 286 287 289 289 290 291
210 207 209 210 212 214 216 218 221 222 224 227 227 228 227 228 228 229 231 234 238 241 245 249 253 257 260 263 266 269 272 275 277 279 281 283 285 286 287 289 290 290 291 293
209 207 209 208 208 212 215 216 219 222 224 226 226 226 225 225 226 228 232 236 239 242 246 251 255 258 262 265 268 270 273 276 278 281 283 285 286 288 289 290 291 292 293 294
207 205 206 206 209 211 213 215 218 218 219 222 224 223 222 223 224 227 231 235 239 244 248 251 255 259 263 267 269 272 274 277 279 282 284 286 288 289 291 291 292 294 295 297
205 205 206 207 209 209 211 212 213 214 215 218 220 221 221 222 223 227 232 237 241 245 249 253 257 261 264 268 271 273 276 279 282 284 286 288 289 291 292 293 295 296 298 299
207 206 207 207 207 207 210 212 214 216 217 218 219 220 222 224 226 230 234 238 242 246 250 255 258 262 265 269 272 275 278 281 283 286 288 289 291 292 294 296 298 299 301 302
206 206 207 206 206 207 210 212 214 216 219 220 221 223 224 226 229 233 236 240 245 249 252 256 259 263 266 270 274 277 280 283 285 287 289 291 293 295 297 299 300 302 303 304
203 203 203 205 206 207 208 211 214 218 221 223 224 225 227 230 233 237 240 244 247 251 254 257 260 264 268 272 276 279 281 284 287 289 291 293 296 297 299 301 302 304 305 306
201 201 202 204 206 207 209 212 214 217 221 223 225 228 232 235 237 240 244 247 250 253 256 259 263 267 271 274 277 280 283 286 288 290 293 295 298 300 302 303 304 305 307 308
201 202 204 205 205 206 209 212 213 215 220 223 227 230 234 236 239 242 246 249 251 254 257 261 265 269 272 275 278 282 285 288 290 293 296 298 300 302 303 305 306 307 309 309
203 203 204 204 204 204 208 212 214 216 220 224 226 231 235 237 240 243 247 250 254 257 261 264 267 271 274 277 281 284 288 290 293 295 298 300 301 303 304 306 308 309 310 311
202 201 201 203 204 205 208 212 216 219 221 223 227 231 235 238 242 246 249 253 257 260 263 266 270 273 277 281 284 287 290 292 295 297 299 301 302 304 306 308 309 310 311 312
200 201 202 205 206 208 211 215 218 221 223 226 229 233 238 240 243 247 252 255 259 262 265 268 271 275 279 283 286 289 292 294 296 298 300 302 304 305 307 309 311 312 312 312
198 201 204 206 208 210 212 215 219 223 225 228 232 237 240 243 247 250 254 257 261 264 267 270 274 278 282 286 288 291 293 296 297 299 301 303 305 307 308 310 312 312 312 313
198 201 204 206 209 212 213 217 220 223 227 230 234 238 242 247 250 253 256 260 263 266 269 273 277 281 285 287 290 292 295 297 298 300 302 304 306 308 310 311 312 312 312 312
196 200 204 208 211 213 215 217 221 224 228 232 235 239 244 248 251 254 258 261 264 267 271 276 280 283 286 288 291 293 296 298 299 301 303 305 307 309 311 312 312 312 312 312
200 203 206 209 211 213 214 217 222 226 230 233 236 240 244 248 252 256 259 262 265 269 274 278 282 285 287 290 292 294 297 299 300 302 304 306 308 310 311 312 312 312 311 312
199 203 205 208 210 212 215 219 223 227 230 233 237 241 245 249 253 257 260 264 268 273 277 280 284 287 289 291 294 296 298 300 302 304 306 308 309 311 312 312 312 311 311 312
198 201 204 206 208 212 216 219 223 226 229 233 237 241 245 250 254 258 263 267 271 275 279 283 286 289 291 293 296 297 299 301 304 306 308 309 310 311 311 312 311 311 311 311